Starlink 33679

operational
NORAD ID: 63460 Int'l Des: 2025-070 Owner: SPXS Country: US Constellation: starlink
LEOCIRCULAR

关于 Starlink 33679

正在加载描述...

实时位置

正在加载3D地球...

即将过境

高度历史

Altitude vs Time

uPlot chart will show altitude changes over time

两行轨道根数

1 63460U 25070A 25261.07244804 .00033560 00000-0 12225-2 0 9999
2 63460 43.0002 154.9633 0001599 282.9717 77.0956 15.27606635 26576
Epoch: Sep 18, 2025 • Age: 13 hours

当前状态

高度 486.9 km
速度 7.63 km/s
星下点 42.34°N, 36.86°E
发射日期 Apr 6, 2025
运行时间 0.4 years
类型 internet

技术详情

分类 Payload
质量 575.00 kg
干质量 530.00 kg
总质量 575.00 kg
长度 0.30 m
直径 4.10 m
跨度 29.00 m
形状 Box + pan
制造商 SPXS
平台类型 Starlink V2MO
阶段状态 In Orbit
所有者/国家 SPXS/US

大型星座

Loading constellations...